map of BCB home
BCB - Airport
Location
City:  Blacksburg, Virginia, United States
Name:Virginia Tech / Montgomery Executive Airport
ICAO:KBCB
IATA:BCB
FAA LID:BCB

Details
Type:Airport (Airfield)
Use:Public/Civil
Latitude:3712'28"N (37.207639)
Longitude:8024'28"W (-80.407832)
Datum:WGS 1984
Elevation:2131 ft (650 m)
Variation:8.44W (WMM2015 magnetic declination)
-0.04 annual change
Runways:1
Longest:4539 × 100 ft (1383 × 30.5 m), paved

Time
Time Zone:UTC-5 (DST-4)
Local Time:

Weather
METAR:KBCB 161335Z AUTO 28007KT 160V320 10SM M01/M02 A3017 RMK AO2 T10131023
TAF:KBCB 161135Z 1612/1712 28007KT P6SM SCT013
FM161400 28008G16KT P6SM BKN015
FM162100 30005KT P6SM BKN020

Related Locations
Nearby:
Farthest:YAUG: 11547 mi / 18583 km
Augusta [Augusta Airport], WA, AU

Find:

   beyond  
but within

Other Information
Maps:
NOTAMs:
Links:
Sources:

  
  • flag of United States
  • flag of Virginia
  

Sectional Chart

Flight Planning
at skyvector.com

Satellite Image

Google Maps Satellite view

 

Copyright © 2004-2019 Karl L. Swartz. All rights reserved.
The Great Circle Mapper name and logo are trademarks of the Great Circle Mapper.
All other trademarks mentioned herein belong to their respective owners.
Please see credits for attibutions and further copyright information.

  Follow gcmap on Facebook Follow gcmap on Twitter Follow gcmap on Google+ GCmap on LinkedIn

hCard Microformat

Geo Microformat